EW2973 Weather Reports


Display with metric or nautical units.
time (UTC)temp
F
wind
direction
speed
MPH
gust
MPH
rain 1hr
in
rain 24hr
in
rain mn
in
humidity
%
barometer
mb
20260904080028 71 261 0.0 0.0 0.00 0.00 0.00 90 1016.1
20260904074544 72 261 0.0 0.0 0.00 0.00 0.00 89 1016.3
20260904073023 72 261 0.0 0.0 0.00 0.00 0.00 88 1016.4
20260904071516 72 249 0.0 0.0 0.00 0.00 0.00 87 1016.4
20260904070033 73 173 0.0 0.0 0.00 0.00 0.00 87 1016.5
20260904064535 73 173 0.0 0.0 0.00 0.00 0.00 86 1016.5
20260904063034 73 184 0.0 2.0 0.00 0.00 0.00 86 1016.5
20260904061532 73 198 0.0 0.0 0.00 0.00 0.00 85 1016.6
20260904060029 73 203 0.0 2.0 0.00 0.00 0.00 85 1016.6
20260904054528 73 223 0.0 2.0 0.00 0.00 0.00 85 1016.8
20260904053033 73 180 0.0 0.0 0.00 0.00 0.00 84 1016.8
20260904051538 73 169 0.0 0.0 0.00 0.00 0.00 84 1017.0
20260904050035 73 185 0.0 2.0 0.00 0.00 0.00 83 1017.2
20260904044532 74 175 0.0 2.0 0.00 0.00 0.00 83 1017.2
20260904043031 74 178 1.0 4.0 0.00 0.00 0.00 83 1017.3
20260904041505 74 169 0.0 0.0 0.00 0.00 0.00 82 1017.2
20260904040009 75 123 0.0 0.0 0.00 0.00 0.00 82 1017.2
20260904034508 75 159 0.0 2.0 0.00 0.00 0.00 81 1017.4
20260904033008 76 152 0.0 0.0 0.00 0.00 0.00 80 1017.4
20260904031506 76 41 0.0 2.0 0.00 0.00 0.00 79 1017.5
20260904030009 77 19 0.0 0.0 0.00 0.00 0.00 78 1017.5
20260904024509 77 19 0.0 0.0 0.00 0.00 0.00 77 1017.6
20260904023007 78 19 0.0 0.0 0.00 0.00 0.00 77 1017.2
20260904021508 78 19 0.0 0.0 0.00 0.00 0.00 76 1017.2
20260904020007 79 19 0.0 0.0 0.00 0.00 0.00 74 1017.0
20260904014508 80 19 0.0 0.0 0.00 0.00 0.00 73 1017.0
20260904013012 81 19 0.0 3.0 0.00 0.00 0.00 71 1016.6
20260904011511 82 352 1.0 2.0 0.00 0.00 0.00 69 1016.6
20260904010010 83 5 2.0 4.0 0.00 0.00 0.00 68 1016.6
20260904004508 83 352 1.0 3.0 0.00 0.00 0.00 68 1016.6
20260904003011 84 267 0.0 0.0 0.00 0.00 0.00 1016.2
20260904001507 86 267 0.0 0.0 0.00 0.00 0.00 63 1016.2
20260904000028 87 267 0.0 0.0 0.00 0.00 0.00 62 1016.4
20260903234511 88 267 0.0 3.0 0.00 0.00 0.00 58 1016.5
20260903233008 89 188 1.0 5.0 0.00 0.00 0.00 57 1016.3
20260903231512 89 232 1.0 5.0 0.00 0.00 0.00 56 1016.0
20260903230018 90 221 3.0 8.0 0.00 0.00 0.00 54 1015.8
20260903224532 91 263 1.0 12.0 0.00 0.00 0.00 54 1015.8
20260903223010 91 234 5.0 9.0 0.00 0.00 0.00 54 1015.9
20260903221513 91 59 0.0 10.0 0.00 0.00 0.00 56 1015.9
20260903220016 91 260 3.0 8.0 0.00 0.00 0.00 54 1015.6
20260903214520 91 140 4.0 10.0 0.00 0.00 0.00 54 1015.6
20260903213016 91 250 4.0 7.0 0.00 0.00 0.00 54 1015.3
20260903211511 92 225 3.0 11.0 0.00 0.00 0.00 50 1015.0
20260903210011 93 271 4.0 16.0 0.00 0.00 0.00 51 1014.9
20260903204512 93 242 6.0 13.0 0.00 0.00 0.00 49 1014.9
20260903203015 94 271 5.0 10.0 0.00 0.00 0.00 47 1014.9
20260903201515 94 232 4.0 10.0 0.00 0.00 0.00 47 1015.2
20260903200016 93 219 4.0 9.0 0.00 0.00 0.00 50 1015.4
20260903194513 91 240 1.0 7.0 0.00 0.00 0.00 56 1015.7
20260903193017 92 242 2.0 7.0 0.00 0.00 0.00 53 1016.2
20260903191524 92 217 1.0 9.0 0.00 0.00 0.00 59 1016.4
20260903190013 92 268 0.0 4.0 0.00 0.00 0.00 56 1016.6
20260903184521 93 264 2.0 9.0 0.00 0.00 0.00 52 1016.5
20260903183016 92 252 2.0 4.0 0.00 0.00 0.00 53 1016.6
20260903181532 93 283 0.0 8.0 0.00 0.00 0.00 54 1016.7
20260903180015 93 17 0.0 7.0 0.00 0.00 0.00 53 1017.0
20260903174508 92 250 3.0 9.0 0.00 0.00 0.00 56 1017.2
20260903173008 91 223 2.0 7.0 0.00 0.00 0.00 58 1017.3
20260903171519 91 259 0.0 4.0 0.00 0.00 0.00 58 1017.5
20260903170010 92 273 1.0 9.0 0.00 0.00 0.00 56 1017.6
20260903164509 92 197 2.0 6.0 0.00 0.00 0.00 57 1017.7
20260903163011 92 267 3.0 5.0 0.00 0.00 0.00 62 1017.8
20260903161508 91 211 2.0 7.0 0.00 0.00 0.00 60 1018.0
20260903160008 90 226 2.0 9.0 0.00 0.00 0.00 61 1018.0
20260903154508 90 217 2.0 5.0 0.00 0.00 0.00 61 1018.1
20260903153010 89 240 2.0 8.0 0.00 0.00 0.00 62 1018.1
20260903151510 88 336 1.0 6.0 0.00 0.00 0.00 65 1018.1
20260903150008 86 338 2.0 6.0 0.00 0.00 0.00 69 1018.2
20260903144511 84 219 1.0 4.0 0.00 0.00 0.00 1018.2
20260903143009 83 260 0.0 3.0 0.00 0.00 0.00 75 1018.2
20260903141510 82 212 0.0 7.0 0.00 0.00 0.00 77 1018.2
20260903140016 81 215 0.0 4.0 0.00 0.00 0.00 77 1018.3
20260903134511 81 213 1.0 6.0 0.00 0.00 0.00 79 1018.3
20260903133017 79 212 0.0 5.0 0.00 0.00 0.00 81 1018.4
20260903131511 78 157 0.0 1.0 0.00 0.00 0.00 82 1018.4
20260903130011 76 261 1.0 5.0 0.00 0.00 0.00 85 1018.6
20260903124513 75 160 0.0 2.0 0.00 0.00 0.00 87 1018.6
20260903123025 74 176 0.0 2.0 0.00 0.00 0.00 89 1018.7
20260903121510 73 169 0.0 0.0 0.00 0.00 0.00 90 1018.7
20260903120014 73 184 0.0 0.0 0.00 0.00 0.00 90 1018.5
20260903114520 73 180 0.0 0.0 0.00 0.00 0.00 90 1018.5
20260903113017 73 180 0.0 0.0 0.00 0.00 0.00 90 1018.4
20260903111519 73 180 0.0 0.0 0.00 0.00 0.00 90 1018.2
20260903110019 73 141 0.0 0.0 0.00 0.00 0.00 90 1018.0
20260903104517 73 141 0.0 0.0 0.00 0.00 0.00 90 1017.8
20260903103016 73 186 0.0 0.0 0.00 0.00 0.00 89 1017.8
20260903101518 73 186 0.0 0.0 0.00 0.00 0.00 89 1017.6
20260903100025 74 186 0.0 0.0 0.00 0.00 0.00 88 1017.6
20260903094519 74 178 0.0 0.0 0.00 0.00 0.00 88 1017.4
20260903093036 74 168 0.0 0.0 0.00 0.00 0.00 88 1017.4
20260903091520 74 175 0.0 1.0 0.00 0.00 0.00 88 1017.5
20260903090018 74 201 0.0 0.0 0.00 0.00 0.00 88 1017.5
20260903084519 74 183 0.0 0.0 0.00 0.00 0.00 87 1017.4
20260903083021 75 183 0.0 0.0 0.00 0.00 0.00 87 1017.4
20260903081533 75 171 0.0 0.0 0.00 0.00 0.00 86 1017.4